Location: Newark
(44.3681°N, 100.3364°W)
Time: 14:55:38
(UTC+00:00)

S-56A Canister/Altair - Pass Details

Date: 07 March 2020
Orbit: 634 x 2498 km, 38.9° (Epoch: 04 April)

Event Time Altitude Azimuth Distance (km) Brightness Sun altitude
Rises 17:42:59 0° 277° (W) 5,282 11.6 38.3°
Reaches altitude 10° 17:46:10 10° 273° (W) 4,491 11.3 38.6°
Maximum altitude 17:58:53 59° 199° (SSW) 2,687 11.5 39.3°
Drops below altitude 10° 18:13:34 10° 125° (SE) 5,103 12.4 40.0°
Sets 18:17:27 0° 122° (ESE) 6,020 12.6 40.1°
